Flag for United Kingdom Weather past 2 weeks in Gloucester, England, United Kingdom

Now
54 °F

Passing clouds.


Feels Like: 49 °F
Forecast: N/A
Wind: 15 mph from Southwest

Location: Staverton Private

Current Time: Dec 18, 2014 at 4:43:15 PM

Latest Report: Dec 18, 2014 at 4:20 PM


Visibility: N/A

Pressure: 29.77 "Hg

Humidity: 94%

Dew point: 52 °F

Location of GloucesterLocation

Historic Weather in Gloucester — Graph

°F

Gloucester temperature yesterday

Maximum temperature yesterday: 55 °F (at 10:20 AM)
Minimum temperature yesterday: 52 °F (at 6:20 PM)
Average temperature yesterday: 54 °F

Past Weeks' High & Low Weather Summary

 TemperatureHumidityPressure
High55 °F (Dec 17, 10:20 AM)100% (Dec 4, 7:50 AM)30.39 "Hg (Dec 4, 7:50 AM)
Low32 °F (Dec 6, 8:20 AM)58% (Dec 10, 12:50 PM)29.27 "Hg (Dec 12, 7:50 AM)
Average44 °F84%29.95 "Hg
* Reported Dec 3 3:20 PM — Dec 18 3:20 PM, Gloucester, Weather by CustomWeather, © 2014

Note: Actual official high and low records may vary slightly from our data, if they occured in-between our weather recording intervals... More about our weather records

Advertising

Gloucester weather history for previous 24 hours

 ConditionsComfort  
Time TempWeatherWind HumidityBarometerVisibility
3:20 PM
Dec 18
54 °FPartly sunny.15 mph94%29.77 "HgN/A
2:50 PM55 °FPartly sunny.18 mph88%29.77 "HgN/A
2:20 PM55 °FPartly sunny.20 mph88%29.77 "HgN/A
1:50 PM55 °FScattered showers. Partly sunny.21 mph88%29.77 "HgN/A
1:20 PM55 °FScattered showers. Scattered clouds.22 mph88%29.77 "HgN/A
12:50 PM55 °FScattered showers. Scattered clouds.21 mph88%29.77 "HgN/A
12:20 PM55 °FScattered clouds.21 mph88%29.77 "HgN/A
11:50 AM55 °FScattered clouds.16 mph88%29.80 "HgN/A
11:20 AM54 °FScattered clouds.15 mph94%29.80 "HgN/A
10:20 AM54 °FScattered clouds.16 mph94%29.80 "HgN/A
9:50 AM54 °FScattered clouds.17 mph94%29.80 "HgN/A
9:20 AM54 °FScattered clouds.15 mph94%29.80 "HgN/A
8:50 AM54 °FScattered clouds.13 mph94%29.80 "HgN/A
8:20 AM54 °FScattered clouds.14 mph94%29.80 "HgN/A
7:50 AM54 °FPassing clouds.14 mph94%29.77 "HgN/A
7:20 AM54 °FPassing clouds.14 mph94%29.77 "HgN/A
6:50 AM54 °FPassing clouds.14 mph94%29.77 "HgN/A
7:20 PM
Dec 17
54 °FPartly cloudy.9 mph94%29.77 "Hg5 mi
6:50 PM52 °FPartly cloudy.10 mph100%29.77 "Hg5 mi
6:20 PM52 °FPartly cloudy.10 mph100%29.74 "Hg5 mi
5:50 PM54 °FPartly cloudy.9 mph94%29.74 "Hg5 mi
5:20 PM54 °FPartly cloudy.7 mph94%29.74 "Hg5 mi
4:50 PM54 °FPassing clouds.9 mph94%29.74 "Hg2 mi
4:20 PM54 °FPassing clouds.6 mph94%29.74 "HgN/A
Weather by CustomWeather, © 2014

See weather overviewHow to use our weather pages